Wind_Speed
3 2 2 2 2 2 2 2 3 4 4 4 5 5 5 4 5 5 6 6 6 6 6 6 7 7 7 7 8 8 8 8 8 8 8 8 8 8 8 7 7 7 7
3 3 3 3 3 3 3 3 4 4 5 5 6 6 6 5 6 6 7 7 7 7 8 8 8 8 9 9 8 9 9 9 10 10 10 9 9 8 9 9 9 9 8
3 4 4 4 4 4 4 5 5 5 5 6 7 7 7 7 7 7 8 8 8 9 9 9 9 10 10 10 10 10 10 10 10 11 11 10 10 9 10 10 10 10 10
4 5 5 5 5 5 6 6 6 6 6 7 8 8 8 7 8 8 8 9 9 9 10 10 10 10 10 10 11 11 11 11 11 11 11 11 11 11 10 10 10 10 11
6 6 6 7 7 6 7 7 7 7 7 8 8 9 9 9 9 9 10 10 10 10 11 11 11 11 11 12 12 12 11 11 12 12 12 12 12 12 11 11 11 12 11
8 8 8 8 8 8 8 8 8 8 8 8 9 9 10 10 11 11 11 11 11 11 12 12 12 12 12 12 13 13 12 12 12 13 13 12 12 12 12 12 12 12 12
9 9 9 9 9 9 9 9 9 9 9 9 10 9 10 10 11 11 11 12 12 12 12 12 13 13 13 14 14 13 13 13 13 13 14 13 13 12 13 13 14 13 13
9 9 10 10 10 10 10 10 9 9 9 9 10 10 9 9 10 10 10 12 13 13 12 13 13 13 14 15 15 14 15 16 15 14 14 14 14 13 13 14 14 14 14
9 9 9 10 10 9 10 10 10 10 10 10 10 9 9 9 10 10 10 11 13 13 13 14 13 13 14 14 15 15 15 16 16 15 15 15 15 15 15 15 15 14 14
9 8 8 9 9 9 10 10 10 10 10 10 10 10 10 10 11 11 11 12 12 14 14 15 15 14 14 14 14 14 14 15 15 15 15 15 15 16 16 16 15 15 15
8 8 8 8 9 10 10 10 10 10 10 10 10 10 11 11 11 11 12 12 12 13 14 15 15 15 15 15 13 14 14 14 14 15 15 16 16 16 16 16 16 16 15
8 8 8 9 9 10 10 10 10 10 10 10 10 10 11 11 12 11 12 12 12 13 14 15 15 14 15 15 14 14 14 14 14 15 15 15 16 16 16 16 17 16 15
8 8 9 9 9 10 11 10 10 10 10 11 11 11 12 12 12 12 12 13 13 13 13 14 15 15 14 15 14 14 14 15 15 15 15 16 16 16 17 17 17 16 15
8 8 8 9 9 10 10 11 11 11 11 11 11 12 12 13 13 13 13 13 14 14 14 14 15 15 14 14 14 15 15 15 16 16 16 16 17 17 17 17 17 16 16
8 9 9 9 10 10 11 11 12 12 12 12 12 13 14 14 14 14 14 14 13 14 14 14 14 14 14 14 14 15 15 16 16 16 16 17 17 16 16 16 16 16 16
9 9 9 10 10 10 11 11 12 12 12 13 14 14 14 15 15 15 15 14 14 14 14 14 14 14 14 15 15 14 15 15 15 16 17 17 17 16 16 15 15 15 15
9 9 9 9 10 11 11 11 11 11 12 13 14 14 14 15 15 15 15 15 14 14 14 15 14 14 15 15 15 14 14 15 15 15 16 16 15 15 15 14 14 14 15
9 9 10 10 10 10 10 11 12 12 12 13 13 14 15 15 15 15 15 15 15 15 15 15 14 14 14 15 15 15 15 15 15 16 16 15 14 14 15 15 15 14 14
9 9 9 10 10 10 11 12 12 12 13 14 14 14 15 15 15 15 15 15 15 15 15 15 15 15 15 14 14 15 15 15 16 16 16 15 15 14 15 15 15 15 15
9 9 10 11 11 11 12 13 13 13 14 14 14 14 15 15 16 16 16 16 15 15 15 15 14 15 14 13 13 13 14 14 15 15 15 15 16 16 15 16 16 15 15
10 10 11 12 12 13 13 13 13 14 14 15 15 15 16 16 16 16 16 16 16 15 15 14 14 14 15 14 14 13 14 14 15 15 15 16 16 16 16 17 16 16 16
11 11 12 12 13 14 14 14 14 14 14 15 15 16 16 16 16 16 15 15 15 15 15 15 15 14 15 15 14 14 13 13 14 14 14 14 14 15 16 16 16 16 16
12 12 13 14 14 15 15 15 15 15 16 16 17 16 16 17 17 16 15 15 15 15 15 15 15 14 14 14 14 14 13 13 13 13 14 14 14 14 15 16 16 17 17
13 14 15 16 16 16 16 16 17 17 17 17 18 17 17 17 16 16 15 15 15 15 15 15 15 15 15 15 15 15 14 13 14 14 14 14 14 15 15 16 16 16 17
15 15 16 16 17 17 17 17 18 18 18 18 17 17 18 17 16 17 17 16 16 16 16 16 16 15 15 15 15 15 15 15 15 14 14 15 15 16 16 16 16 16 17
16 17 17 17 17 17 18 18 19 19 18 18 17 17 18 18 17 17 17 17 17 17 17 17 16 16 15 16 16 16 16 16 16 16 16 16 16 17 17 17 17 18 18
Wind_Direction
207 202 209 225 232 250 267 278 278 288 281 276 271 270 267 256 254 254 257 256 254 256 256 256 260 260 260 263 262 261 261 262 260 260 259 262 264 266 267 268 272 272 268
231 222 228 242 247 256 268 281 284 279 278 276 273 269 265 263 262 254 254 258 259 262 263 265 266 266 266 267 266 261 260 260 260 262 261 261 262 264 267 271 272 271 272
250 238 236 252 259 259 266 275 276 274 272 273 268 264 266 267 270 263 261 262 264 266 268 269 270 270 269 269 268 265 260 262 263 264 263 262 260 263 267 271 270 268 271
261 255 249 253 262 264 264 271 272 273 274 272 265 264 268 269 270 268 266 264 265 268 272 273 272 271 271 270 269 266 264 264 265 264 263 262 261 261 264 270 269 269 270
266 263 260 257 261 265 265 267 271 272 272 271 266 266 267 267 268 268 267 267 267 268 269 269 271 273 273 270 269 267 265 265 265 267 265 264 262 262 265 267 268 268 270
265 262 260 259 262 265 264 263 268 268 268 267 267 269 268 269 270 269 268 268 270 273 272 269 272 273 273 273 270 267 264 265 263 265 265 265 262 264 265 266 268 270 271
268 264 262 260 260 263 262 262 266 266 266 266 268 271 271 270 270 270 271 269 270 273 273 272 273 273 274 274 271 269 267 265 263 263 265 265 263 263 265 268 267 269 271
272 268 263 256 254 257 258 259 261 265 266 267 271 271 270 270 273 273 275 275 271 270 272 274 274 277 278 275 273 271 267 264 263 263 264 265 265 265 267 270 269 270 269
270 267 260 253 251 254 256 258 259 263 264 267 272 273 272 274 274 274 280 281 277 275 275 275 273 279 278 277 277 276 269 263 261 261 262 264 265 267 268 271 272 272 271
271 265 259 253 251 255 258 258 262 263 264 266 271 274 275 276 278 278 280 285 281 277 276 275 274 280 278 276 277 279 273 264 260 260 262 262 264 265 267 270 271 271 270
273 268 260 256 256 257 258 261 264 263 266 269 272 274 278 280 280 282 283 286 285 283 282 280 277 280 276 275 274 273 271 267 265 263 261 261 262 265 266 269 271 269 268
271 270 264 260 258 260 261 265 267 268 269 271 273 275 278 282 281 282 285 289 289 286 284 284 281 281 277 274 273 270 265 264 265 265 261 259 263 265 267 268 267 267 266
267 264 266 267 267 267 265 266 268 270 270 271 272 273 275 280 282 282 284 288 289 288 287 285 283 281 277 273 274 270 267 263 263 264 264 262 263 264 266 267 267 265 264
269 266 265 269 273 275 270 267 267 268 270 273 273 274 274 278 279 281 284 287 289 288 286 285 283 281 279 274 272 270 267 264 264 264 266 264 264 265 266 268 267 266 265
274 274 273 276 277 276 271 267 266 266 269 272 272 274 275 276 277 279 281 283 286 287 286 287 285 282 280 276 274 272 271 269 266 266 267 268 267 267 265 265 267 264 263
276 278 277 277 277 277 276 271 268 265 266 269 273 274 276 277 277 279 284 286 287 286 287 287 288 284 281 280 277 274 272 269 267 265 267 268 267 267 266 267 264 263 263
272 275 277 277 275 275 275 273 272 268 267 270 274 275 278 279 279 282 284 285 287 288 289 289 289 285 282 281 278 274 273 272 269 266 266 265 267 268 267 265 265 262 262
272 276 278 279 278 279 276 274 275 274 271 273 277 280 281 281 281 283 282 283 285 285 287 287 286 283 281 281 279 275 271 270 271 268 266 264 266 266 265 264 262 262 264
275 278 281 280 283 285 283 280 277 276 276 275 276 279 281 283 283 284 284 282 283 285 288 287 284 284 282 280 278 277 274 271 271 269 266 264 263 263 264 262 262 264 266
279 278 281 283 285 287 285 283 281 279 278 277 276 278 282 284 287 286 285 285 285 284 286 287 284 284 286 284 278 277 275 272 270 266 265 264 263 262 261 259 259 261 264
283 283 282 283 284 285 283 282 281 281 280 278 277 280 283 286 288 289 286 284 285 285 286 285 282 284 285 287 283 278 275 272 270 268 267 266 264 262 260 259 259 260 263
283 284 284 283 282 283 282 280 279 280 280 280 280 280 284 286 287 288 287 285 284 284 283 283 283 282 284 287 288 285 282 279 275 271 268 266 265 261 259 259 262 264 263
284 286 286 286 286 284 281 279 278 278 280 281 282 283 285 287 288 287 287 285 284 284 281 283 283 281 281 283 287 289 287 282 280 276 274 273 272 270 269 268 269 269 267
284 286 287 288 288 285 281 279 278 279 281 282 282 282 283 284 284 285 286 288 286 283 281 283 283 282 282 282 284 285 285 284 282 280 278 278 276 273 272 273 272 270 269
287 287 286 287 287 285 282 279 278 278 280 281 283 282 280 280 281 283 285 285 284 283 282 283 284 285 284 282 282 282 282 283 283 281 279 279 278 275 272 273 273 273 271
287 289 288 288 287 284 281 278 278 280 279 279 279 280 279 278 279 280 282 284 283 282 283 282 283 283 285 284 283 282 280 281 281 281 279 278 278 276 275 273 273 274 273
Height
5874 5873 5873 5873 5874 5874 5874 5874 5875 5874 5875 5875 5875 5875 5875 5875 5875 5875 5875 5875 5875 5875 5875 5874 5874 5874 5874 5873 5873 5873 5873 5873 5873 5872 5872 5872 5872 5872 5871 5871 5871 5871 5871
5873 5873 5873 5873 5873 5873 5874 5874 5874 5874 5874 5874 5874 5874 5874 5874 5874 5874 5874 5874 5874 5874 5874 5873 5873 5873 5872 5872 5872 5872 5871 5871 5871 5871 5870 5870 5870 5870 5870 5870 5870 5869 5869
5872 5872 5872 5872 5872 5873 5873 5873 5873 5873 5873 5873 5873 5873 5873 5872 5872 5873 5872 5872 5872 5872 5872 5872 5871 5871 5870 5870 5870 5870 5869 5869 5869 5869 5868 5868 5868 5868 5868 5868 5868 5868 5867
5871 5871 5871 5871 5871 5872 5872 5872 5872 5872 5872 5872 5872 5872 5871 5871 5871 5871 5871 5871 5870 5870 5870 5870 5869 5869 5868 5868 5868 5867 5867 5867 5866 5866 5866 5866 5866 5866 5866 5866 5866 5866 5865
5870 5870 5870 5870 5870 5871 5871 5871 5871 5871 5871 5870 5870 5870 5870 5870 5870 5870 5869 5869 5868 5868 5868 5868 5867 5867 5866 5866 5865 5865 5864 5864 5864 5864 5864 5864 5864 5864 5864 5864 5864 5864 5863
5868 5868 5868 5868 5869 5869 5869 5869 5869 5869 5869 5869 5869 5869 5869 5868 5868 5868 5868 5867 5867 5866 5866 5865 5865 5864 5864 5863 5862 5862 5862 5861 5861 5861 5862 5862 5862 5862 5862 5862 5862 5861 5861
5866 5866 5866 5866 5867 5867 5867 5868 5868 5868 5868 5868 5867 5867 5867 5867 5866 5866 5865 5865 5865 5864 5863 5863 5862 5862 5861 5860 5859 5859 5858 5858 5858 5858 5859 5859 5859 5860 5860 5859 5859 5859 5859
5864 5864 5863 5864 5864 5865 5866 5866 5866 5866 5866 5866 5865 5865 5865 5865 5864 5864 5863 5863 5862 5862 5861 5860 5860 5859 5858 5857 5856 5855 5854 5853 5854 5855 5856 5857 5857 5857 5857 5857 5856 5856 5856
5862 5861 5861 5861 5862 5863 5863 5864 5864 5864 5864 5864 5864 5864 5863 5863 5862 5861 5861 5860 5860 5859 5858 5858 5857 5856 5855 5854 5851 5850 5848 5848 5849 5851 5853 5853 5854 5854 5854 5854 5854 5854 5853
5861 5860 5860 5860 5861 5861 5862 5862 5862 5862 5862 5862 5862 5862 5861 5861 5860 5859 5859 5858 5857 5857 5856 5855 5854 5854 5852 5850 5848 5845 5844 5844 5845 5848 5849 5850 5850 5851 5851 5851 5850 5850 5851
5859 5859 5859 5859 5859 5859 5860 5860 5860 5860 5860 5860 5860 5860 5859 5858 5858 5857 5856 5856 5855 5854 5853 5852 5851 5851 5849 5848 5846 5844 5842 5842 5843 5845 5846 5847 5847 5847 5847 5847 5847 5847 5847
5857 5857 5857 5857 5857 5857 5857 5857 5858 5858 5858 5857 5857 5857 5857 5856 5855 5855 5854 5853 5853 5852 5851 5849 5848 5848 5846 5845 5844 5842 5841 5841 5842 5843 5844 5844 5844 5844 5844 5844 5844 5844 5843
5856 5855 5855 5855 5855 5855 5855 5855 5855 5855 5855 5855 5855 5855 5854 5854 5853 5852 5852 5851 5850 5849 5848 5846 5846 5845 5844 5843 5841 5841 5840 5840 5840 5840 5841 5841 5841 5841 5841 5840 5840 5840 5840
5853 5853 5853 5853 5853 5853 5853 5852 5852 5852 5852 5852 5852 5852 5851 5851 5850 5850 5849 5848 5847 5846 5845 5844 5842 5841 5841 5839 5839 5838 5837 5837 5837 5837 5837 5837 5837 5837 5837 5837 5836 5836 5836
5851 5851 5851 5850 5850 5850 5850 5850 5849 5849 5849 5849 5849 5848 5848 5848 5847 5846 5846 5845 5844 5843 5842 5841 5840 5838 5837 5836 5835 5835 5834 5834 5834 5834 5834 5834 5833 5833 5833 5833 5832 5832 5832
5849 5848 5848 5848 5848 5847 5847 5847 5846 5846 5846 5846 5845 5845 5845 5844 5844 5843 5842 5841 5841 5840 5839 5838 5837 5835 5834 5833 5832 5831 5831 5830 5830 5830 5830 5830 5829 5829 5829 5828 5828 5828 5827
5846 5846 5845 5845 5845 5844 5844 5844 5843 5843 5843 5843 5842 5842 5841 5841 5840 5839 5839 5838 5837 5836 5835 5834 5833 5832 5831 5830 5829 5828 5827 5827 5827 5826 5826 5826 5825 5825 5825 5825 5824 5824 5823
5843 5843 5843 5842 5842 5842 5841 5841 5840 5840 5840 5839 5839 5838 5838 5837 5836 5836 5835 5835 5834 5833 5832 5831 5830 5829 5827 5826 5825 5824 5823 5823 5823 5822 5822 5822 5821 5821 5821 5821 5820 5820 5820
5841 5840 5840 5839 5839 5839 5838 5838 5837 5837 5836 5836 5835 5835 5834 5833 5833 5832 5831 5831 5830 5829 5828 5827 5826 5825 5824 5822 5821 5820 5819 5818 5818 5817 5818 5817 5817 5817 5816 5816 5816 5816 5816
5838 5838 5837 5837 5836 5836 5835 5834 5834 5833 5833 5832 5832 5831 5830 5830 5829 5828 5828 5827 5826 5825 5824 5823 5822 5821 5820 5818 5817 5816 5815 5814 5813 5813 5813 5813 5813 5813 5812 5812 5812 5812 5811
5835 5835 5834 5834 5833 5832 5832 5831 5830 5830 5829 5829 5828 5827 5826 5826 5825 5824 5823 5822 5822 5821 5820 5819 5818 5817 5816 5815 5814 5812 5811 5810 5809 5809 5809 5809 5808 5808 5808 5808 5808 5807 5807
5832 5831 5831 5830 5829 5829 5828 5827 5827 5826 5825 5825 5824 5823 5822 5821 5821 5820 5819 5818 5817 5817 5816 5815 5814 5813 5812 5811 5810 5809 5808 5807 5805 5805 5804 5804 5804 5804 5804 5804 5803 5803 5803
5829 5828 5827 5826 5825 5825 5824 5823 5823 5822 5821 5821 5820 5819 5818 5817 5816 5815 5815 5814 5813 5812 5811 5811 5810 5809 5808 5807 5806 5805 5804 5803 5802 5801 5800 5800 5800 5800 5800 5800 5799 5799 5799
5825 5825 5824 5823 5821 5820 5820 5819 5818 5818 5817 5816 5816 5815 5814 5813 5812 5811 5810 5809 5809 5808 5807 5806 5805 5805 5804 5803 5802 5801 5801 5799 5799 5798 5797 5796 5796 5796 5795 5795 5795 5795 5794
5822 5821 5820 5819 5818 5816 5815 5815 5814 5813 5813 5812 5811 5810 5809 5808 5807 5807 5806 5805 5804 5804 5803 5802 5801 5800 5799 5798 5798 5797 5796 5796 5795 5794 5793 5793 5792 5791 5791 5790 5790 5789 5789
5817 5816 5815 5814 5813 5812 5811 5810 5809 5809 5808 5807 5806 5805 5804 5804 5803 5802 5801 5800 5800 5799 5798 5797 5796 5795 5794 5794 5793 5792 5791 5791 5790 5789 5789 5788 5788 5787 5786 5785 5785 5784 5784